• In Czech Republic
  • List of Countries
  • For 7 days
  • Water Temperature
  • Satellite Maps
  • Weather Map
  • Weather Widgets
  • user-avatar
    Login

    Hourly Weather Pshenychne

    Today, 23 September, Sunday

    Time Temperature Precipitation Wind Pressure Humidity
    00:00 +20°C° 0 mm 5 mps 758 mmHg 56%
    01:00 +19°C° 0 mm 6 mps 759 mmHg 59%
    02:00 +17°C° 0 mm 6 mps 758 mmHg 62%
    03:00 +17°C° 0.1 mm 6 mps 759 mmHg 66%
    04:00 +16°C° 0.1 mm 6 mps 759 mmHg 70%
    05:00 +15°C° 0.1 mm 6 mps 759 mmHg 74%
    06:00 +15°C° 0.1 mm 6 mps 760 mmHg 73%
    07:00 +15°C° 0.1 mm 5 mps 760 mmHg 73%
    08:00 +14°C° 0 mm 5 mps 760 mmHg 74%
    09:00 +16°C° 0 mm 5 mps 760 mmHg 66%
    10:00 +18°C° 0 mm 4 mps 761 mmHg 58%
    11:00 +19°C° 0 mm 4 mps 761 mmHg 50%
    12:00 +20°C° 0 mm 3 mps 761 mmHg 44%
    13:00 +21°C° 0 mm 3 mps 761 mmHg 39%
    14:00 +22°C° 0 mm 3 mps 760 mmHg 33%
    15:00 +23°C° 0 mm 2 mps 760 mmHg 33%
    16:00 +23°C° 0 mm 2 mps 760 mmHg 32%
    17:00 +23°C° 0 mm 1 mps 760 mmHg 32%
    18:00 +21°C° 0 mm 2 mps 760 mmHg 35%
    19:00 +19°C° 0 mm 2 mps 760 mmHg 37%
    20:00 +18°C° 0 mm 2 mps 760 mmHg 40%
    21:00 +18°C° 0 mm 2 mps 760 mmHg 45%
    22:00 +18°C° 0 mm 3 mps 760 mmHg 50%
    23:00 +17°C° 0 mm 3 mps 760 mmHg 55%

    Tomorrow, 24 September, Monday

    Time Temperature Precipitation Wind Pressure Humidity
    00:00 +17°C° 0 mm 4 mps 759 mmHg 60%
    01:00 +16°C° 0 mm 5 mps 758 mmHg 64%
    02:00 +16°C° 0 mm 5 mps 758 mmHg 69%
    03:00 +17°C° 0 mm 6 mps 757 mmHg 71%
    04:00 +17°C° 0 mm 6 mps 756 mmHg 72%
    05:00 +17°C° 0 mm 7 mps 756 mmHg 73%
    06:00 +18°C° 0 mm 8 mps 755 mmHg 73%
    07:00 +21°C° 0 mm 8 mps 755 mmHg 72%
    08:00 +22°C° 0 mm 9 mps 754 mmHg 71%
    09:00 +23°C° 0 mm 9 mps 754 mmHg 65%
    10:00 +26°C° 0 mm 9 mps 753 mmHg 59%
    11:00 +28°C° 0 mm 10 mps 752 mmHg 53%
    12:00 +29°C° 0 mm 9 mps 752 mmHg 48%
    13:00 +31°C° 0 mm 9 mps 752 mmHg 44%
    14:00 +32°C° 0 mm 9 mps 752 mmHg 39%
    15:00 +27°C° 0.2 mm 9 mps 753 mmHg 48%
    16:00 +21°C° 0.2 mm 10 mps 754 mmHg 56%
    17:00 +14°C° 0.2 mm 11 mps 755 mmHg 65%
    18:00 +13°C° 1 mm 10 mps 756 mmHg 66%
    19:00 +13°C° 1 mm 9 mps 757 mmHg 67%
    20:00 +12°C° 1 mm 8 mps 758 mmHg 68%
    21:00 +12°C° 0.5 mm 8 mps 759 mmHg 66%
    22:00 +12°C° 0.5 mm 7 mps 759 mmHg 65%
    23:00 +12°C° 0.5 mm 7 mps 760 mmHg 63%

    Day after tomorrow, 25 September, Tuesday

    Time Temperature Precipitation Wind Pressure Humidity
    00:00 +11°C° 0 mm 7 mps 760 mmHg 62%
    01:00 +10°C° 0 mm 7 mps 760 mmHg 61%
    02:00 +10°C° 0 mm 6 mps 760 mmHg 60%
    03:00 +9°C° 0 mm 6 mps 761 mmHg 61%
    04:00 +9°C° 0 mm 6 mps 761 mmHg 61%
    05:00 +8°C° 0 mm 6 mps 761 mmHg 62%
    06:00 +9°C° 0 mm 6 mps 761 mmHg 58%
    07:00 +10°C° 0 mm 7 mps 762 mmHg 55%
    08:00 +10°C° 0 mm 7 mps 762 mmHg 51%
    09:00 +11°C° 0 mm 8 mps 762 mmHg 47%
    10:00 +13°C° 0 mm 8 mps 763 mmHg 44%
    11:00 +15°C° 0 mm 8 mps 763 mmHg 40%
    12:00 +13°C° 0 mm 9 mps 763 mmHg 44%
    13:00 +12°C° 0 mm 9 mps 763 mmHg 47%
    14:00 +12°C° 0 mm 9 mps 764 mmHg 51%
    15:00 +12°C° 0 mm 9 mps 764 mmHg 47%
    16:00 +12°C° 0 mm 8 mps 764 mmHg 43%
    17:00 +12°C° 0 mm 8 mps 765 mmHg 39%
    18:00 +11°C° 0 mm 7 mps 765 mmHg 41%
    19:00 +11°C° 0 mm 6 mps 766 mmHg 43%
    20:00 +10°C° 0 mm 5 mps 767 mmHg 46%
    21:00 +9°C° 0 mm 5 mps 767 mmHg 48%
    22:00 +9°C° 0 mm 5 mps 767 mmHg 50%
    23:00 +8°C° 0 mm 5 mps 768 mmHg 51%

    26 September, Wednesday

    Time Temperature Precipitation Wind Pressure Humidity
    00:00 +8°C° 0 mm 5 mps 768 mmHg 54%
    01:00 +7°C° 0 mm 5 mps 768 mmHg 57%
    02:00 +7°C° 0 mm 5 mps 768 mmHg 59%
    03:00 +7°C° 0 mm 5 mps 769 mmHg 62%
    04:00 +6°C° 0 mm 5 mps 769 mmHg 64%
    05:00 +6°C° 0 mm 5 mps 769 mmHg 67%
    06:00 +7°C° 0 mm 6 mps 769 mmHg 64%
    07:00 +7°C° 0 mm 6 mps 770 mmHg 62%
    08:00 +8°C° 0 mm 7 mps 770 mmHg 60%
    09:00 +9°C° 0 mm 7 mps 770 mmHg 53%
    10:00 +10°C° 0 mm 7 mps 770 mmHg 45%
    11:00 +12°C° 0 mm 7 mps 770 mmHg 37%
    12:00 +12°C° 0 mm 7 mps 770 mmHg 35%
    13:00 +12°C° 0 mm 7 mps 770 mmHg 32%
    14:00 +14°C° 0 mm 7 mps 770 mmHg 29%
    15:00 +12°C° 0 mm 7 mps 770 mmHg 30%
    16:00 +12°C° 0 mm 7 mps 770 mmHg 31%
    17:00 +11°C° 0 mm 6 mps 770 mmHg 32%
    18:00 +10°C° 0 mm 5 mps 770 mmHg 36%
    19:00 +10°C° 0 mm 4 mps 770 mmHg 39%
    20:00 +9°C° 0 mm 3 mps 770 mmHg 43%
    21:00 +9°C° 0 mm 3 mps 770 mmHg 45%
    22:00 +8°C° 0 mm 2 mps 770 mmHg 46%
    23:00 +8°C° 0 mm 2 mps 770 mmHg 48%

    27 September, Thursday

    Time Temperature Precipitation Wind Pressure Humidity
    00:00 +7°C° 0 mm 2 mps 770 mmHg 49%
    01:00 +7°C° 0 mm 2 mps 770 mmHg 50%
    02:00 +7°C° 0 mm 2 mps 770 mmHg 51%
    03:00 +6°C° 0 mm 2 mps 769 mmHg 52%
    04:00 +7°C° 0 mm 1 mps 769 mmHg 52%
    05:00 +7°C° 0 mm 1 mps 769 mmHg 53%
    06:00 +8°C° 0 mm 1 mps 769 mmHg 50%
    07:00 +9°C° 0 mm 1 mps 769 mmHg 46%
    08:00 +11°C° 0 mm 1 mps 768 mmHg 43%
    09:00 +12°C° 0 mm 1 mps 768 mmHg 39%
    10:00 +14°C° 0 mm 2 mps 768 mmHg 34%
    11:00 +15°C° 0 mm 2 mps 768 mmHg 30%
    12:00 +16°C° 0 mm 2 mps 767 mmHg 28%
    13:00 +17°C° 0 mm 2 mps 766 mmHg 26%
    14:00 +18°C° 0 mm 2 mps 766 mmHg 24%
    15:00 +18°C° 0 mm 2 mps 765 mmHg 25%
    16:00 +18°C° 0 mm 2 mps 765 mmHg 26%
    17:00 +18°C° 0 mm 2 mps 765 mmHg 27%
    18:00 +18°C° 0 mm 1 mps 765 mmHg 29%
    19:00 +16°C° 0 mm 1 mps 765 mmHg 31%
    20:00 +15°C° 0 mm 1 mps 765 mmHg 33%
    21:00 +14°C° 0 mm 1 mps 765 mmHg 35%
    22:00 +14°C° 0 mm 2 mps 765 mmHg 36%
    23:00 +14°C° 0 mm 2 mps 764 mmHg 38%

    28 September, Friday

    Time Temperature Precipitation Wind Pressure Humidity
    00:00 +14°C° 0 mm 2 mps 764 mmHg 40%
    01:00 +14°C° 0 mm 2 mps 764 mmHg 42%
    02:00 +13°C° 0 mm 2 mps 764 mmHg 44%
    03:00 +13°C° 0 mm 2 mps 763 mmHg 48%
    04:00 +13°C° 0 mm 2 mps 763 mmHg 51%
    05:00 +13°C° 0 mm 2 mps 763 mmHg 54%
    06:00 +13°C° 0 mm 2 mps 763 mmHg 54%
    07:00 +14°C° 0 mm 2 mps 763 mmHg 54%
    08:00 +14°C° 0 mm 3 mps 763 mmHg 55%
    09:00 +17°C° 0 mm 3 mps 762 mmHg 52%
    10:00 +18°C° 0 mm 3 mps 762 mmHg 50%
    11:00 +20°C° 0 mm 2 mps 762 mmHg 48%
    12:00 +21°C° 0 mm 2 mps 761 mmHg 47%
    13:00 +23°C° 0 mm 2 mps 761 mmHg 46%
    14:00 +24°C° 0 mm 2 mps 760 mmHg 44%
    15:00 +23°C° 0 mm 2 mps 760 mmHg 46%
    16:00 +23°C° 0 mm 2 mps 760 mmHg 47%
    17:00 +23°C° 0 mm 2 mps 759 mmHg 48%
    18:00 +20°C° 0 mm 2 mps 760 mmHg 53%
    19:00 +20°C° 0 mm 1 mps 760 mmHg 58%
    20:00 +18°C° 0 mm 1 mps 760 mmHg 63%
    21:00 +18°C° 0 mm 1 mps 760 mmHg 65%
    22:00 +18°C° 0 mm 1 mps 760 mmHg 66%
    23:00 +16°C° 0 mm 1 mps 760 mmHg 68%
    Show more